ECMWFNIL_850_spd_132.txt.gz
Wind_Speed
18 17 17 17 16 13 11 10 11 13 14 14 13 13 11 10 9 9 10 11 13 15 16 14 12 10 8 8 8 8 8 9 9 9 9 9 9 10 11 11 12 13
19 17 17 17 16 13 11 11 12 14 14 13 13 11 10 8 8 9 10 12 14 15 14 11 9 7 7 7 7 7 8 8 7 7 8 9 10 10 11 12 12 12
18 17 17 16 14 12 12 13 14 13 13 12 12 11 9 8 8 10 11 13 14 15 12 9 7 7 7 7 7 7 8 7 7 7 9 10 10 10 11 11 11 12
18 17 16 14 11 11 13 14 14 14 13 12 11 9 8 8 10 11 12 13 15 13 10 7 7 7 6 6 6 6 7 7 8 8 10 10 10 10 10 10 11 11
19 18 15 13 12 12 14 14 14 14 13 12 10 8 8 10 11 12 13 14 14 12 9 7 6 5 4 4 5 6 7 7 8 9 9 9 9 9 9 9 10 10
18 17 15 14 14 14 15 15 15 14 13 11 9 8 9 10 12 13 14 14 13 10 7 5 3 2 2 3 5 6 7 7 8 8 8 8 9 9 9 10 10 11
16 15 15 15 16 16 17 17 16 14 12 10 9 9 10 11 12 13 13 13 10 8 5 2 0 1 2 4 5 6 7 7 7 6 7 8 9 9 10 11 12 12
15 15 14 16 18 19 19 17 14 13 11 9 9 10 11 11 12 12 13 11 9 6 3 1 2 3 4 5 6 6 6 6 5 5 7 8 9 9 11 12 12 13
17 16 15 17 20 19 16 14 13 12 12 11 11 11 11 11 11 12 11 9 7 4 2 3 4 4 5 5 6 6 6 6 5 6 7 8 9 10 12 13 13 13
20 19 16 17 19 16 15 15 14 13 12 11 11 11 11 11 11 11 9 7 5 3 4 4 4 5 5 5 5 5 5 6 6 6 7 8 10 12 13 13 13 14
21 18 16 17 18 18 17 15 14 12 12 12 12 11 11 10 10 9 7 5 5 5 4 4 4 4 4 4 4 5 5 5 6 7 8 10 11 12 13 13 14 15
21 18 18 19 19 17 15 13 12 12 12 12 11 10 9 9 8 7 6 6 6 6 5 4 4 4 4 4 4 5 5 6 7 8 9 11 11 12 13 14 15 16
22 20 20 18 16 14 14 14 14 13 12 11 10 9 8 8 8 8 8 8 7 7 6 4 3 3 3 4 5 6 6 7 8 9 10 11 11 12 14 15 16 17
21 20 18 16 15 16 16 15 14 13 12 11 10 9 9 9 9 11 12 11 9 7 5 3 3 3 4 6 7 7 8 8 9 9 10 11 11 13 15 16 18 19
18 17 16 17 17 17 16 14 14 13 12 12 12 11 11 12 13 13 12 10 8 6 5 4 4 5 7 8 8 8 8 8 9 10 10 11 12 14 16 18 18 19
17 17 18 18 18 16 15 14 14 14 14 14 13 12 13 14 14 11 9 8 7 7 6 5 6 8 10 10 9 9 8 8 9 10 11 12 14 16 17 19 19 20
19 19 19 18 16 15 14 14 15 15 15 14 13 13 13 13 11 10 10 9 8 7 6 6 8 11 11 11 10 9 8 8 9 10 11 13 15 17 18 19 20 20
18 18 17 15 13 12 13 15 16 16 16 13 12 12 13 13 12 12 12 10 8 7 7 9 11 12 12 11 10 9 8 8 9 10 11 14 16 18 19 19 20 20
17 17 16 13 13 15 16 15 15 15 14 12 13 13 13 14 14 13 12 10 8 8 9 12 13 14 13 11 10 10 9 9 9 11 13 15 17 18 18 19 19 19
17 16 14 14 17 19 18 15 14 14 13 12 12 12 14 15 15 13 12 10 9 9 11 14 15 15 13 12 11 10 9 9 10 12 14 15 17 17 18 18 18 18
17 16 16 17 20 21 18 15 14 14 13 12 11 12 14 15 15 13 12 11 10 11 13 16 16 15 14 12 11 10 9 10 11 12 13 15 16 17 17 17 17 17
17 17 19 20 22 20 18 16 15 14 13 11 11 13 15 15 14 13 11 12 13 13 15 17 17 16 14 12 11 10 9 10 10 11 12 14 15 16 16 16 16 16
17 19 20 21 21 20 18 17 16 14 12 10 11 15 17 16 15 14 12 13 14 15 16 17 17 16 14 12 11 10 9 8 9 10 11 12 13 14 14 14 15 16
18 20 21 21 21 20 19 18 16 13 12 11 12 16 18 18 16 16 15 14 15 15 15 15 15 15 13 12 10 9 8 8 8 9 10 11 12 12 13 13 14 15
19 20 20 21 20 19 18 17 15 13 13 14 15 17 19 19 17 17 17 16 16 15 13 12 14 15 13 11 10 9 7 7 7 8 8 9 10 11 11 12 13 13
18 19 20 20 19 18 17 16 14 14 15 17 18 19 20 20 19 17 17 18 17 15 13 11 12 14 13 10 9 8 7 7 7 6 7 8 8 9 10 11 11 12

ECMWFNIL_850_spd_135.txt.gz
Wind_Speed
18 16 14 14 12 9 9 9 9 9 12 13 10 8 8 6 4 2 2 3 5 7 8 7 6 5 5 6 7 8 9 9 9 10 10 9 9 9 9 9 10 11
17 13 13 13 11 11 11 10 9 11 14 12 9 7 6 4 3 3 2 4 6 8 8 7 5 5 5 7 8 9 10 9 9 9 9 8 8 9 9 10 10 11
18 15 14 13 12 13 13 12 12 14 14 11 8 6 4 3 3 2 2 5 7 9 8 5 4 5 6 8 9 10 10 9 8 9 8 8 8 9 9 10 10 10
17 16 14 13 13 13 14 15 15 16 14 10 8 6 4 3 2 1 3 5 8 9 7 5 4 6 8 10 10 10 9 8 8 8 8 8 8 9 9 10 10 10
15 15 12 12 13 14 16 17 18 17 14 9 8 7 4 2 0 2 4 6 8 8 6 4 6 8 9 10 9 9 8 7 8 8 7 8 8 9 10 10 10 10
16 15 13 12 14 16 17 20 20 18 13 10 10 7 3 1 1 3 5 7 8 7 5 6 8 9 10 10 9 8 7 7 7 8 7 8 9 9 10 11 11 11
19 17 16 15 16 17 18 22 22 17 12 12 9 5 2 1 1 3 6 8 7 5 5 7 9 9 9 9 8 8 7 6 7 8 8 9 9 10 11 12 11 12
20 18 17 17 19 20 20 23 22 16 13 10 6 3 1 0 2 4 6 7 5 3 7 9 9 9 9 9 8 7 6 7 8 8 8 9 10 11 13 12 12 14
19 17 17 18 20 22 22 23 21 15 10 6 3 3 2 1 3 4 5 5 3 6 9 10 9 9 9 8 7 7 7 7 8 8 9 10 11 13 13 13 13 15
15 15 17 18 20 22 22 21 17 11 7 5 4 3 2 3 3 4 4 2 5 9 11 11 10 10 9 7 7 7 7 7 8 9 10 11 13 13 14 13 15 17
12 14 16 17 19 21 20 17 12 8 7 7 5 4 3 3 4 2 1 6 10 11 12 11 10 9 8 7 8 8 7 8 9 11 11 12 14 14 14 15 17 19
14 16 16 17 19 19 17 14 10 9 8 6 5 5 4 4 3 2 6 10 12 13 12 11 10 9 8 8 9 9 9 10 11 11 12 13 14 15 16 17 18 19
17 18 17 18 18 16 14 13 11 9 7 6 6 6 5 4 3 7 11 13 13 13 12 10 8 8 8 9 10 10 11 11 11 11 12 14 15 16 17 18 19 20
20 19 18 18 17 16 15 12 10 8 7 8 8 7 5 5 7 10 13 14 14 12 10 9 9 9 10 10 11 12 12 12 12 12 13 15 16 18 19 19 20 20
23 21 19 18 17 15 12 10 9 9 10 10 9 7 7 9 11 12 14 15 13 11 10 10 11 12 12 12 12 13 13 13 13 14 15 16 18 19 20 20 20 20
24 22 20 19 17 13 11 11 11 11 11 10 9 9 11 13 14 15 14 13 11 11 11 12 13 14 14 13 13 14 14 13 14 16 16 18 19 19 20 20 20 20
24 23 21 18 15 13 12 12 11 11 10 10 11 13 15 16 17 16 14 12 11 11 12 14 15 15 15 14 14 14 14 14 15 17 18 19 19 19 19 20 20 20
23 22 19 17 15 13 12 11 10 10 11 13 14 16 17 17 17 15 14 13 12 12 14 15 16 16 15 15 15 14 14 15 17 18 19 19 18 19 19 20 20 20
24 21 18 17 14 12 10 9 10 12 14 16 17 17 17 17 16 16 15 14 13 14 16 17 17 16 15 15 15 15 15 16 18 19 19 18 18 18 19 20 20 20
22 19 17 16 14 13 12 11 13 15 16 17 17 18 18 18 18 18 16 14 14 16 18 18 18 17 15 15 15 16 16 17 18 19 18 18 18 18 19 19 19 19
18 17 17 15 14 15 15 15 16 17 18 18 18 19 19 20 19 18 16 16 17 18 19 19 18 17 15 15 16 16 16 17 18 18 18 18 18 18 18 19 19 19
19 18 17 16 16 17 18 18 19 19 19 19 20 20 20 20 19 17 16 18 18 18 19 20 19 17 16 16 16 16 16 17 18 18 18 17 17 17 17 18 18 18
21 20 17 17 18 20 20 20 20 19 19 19 21 22 22 20 19 17 17 18 20 20 19 20 20 18 17 16 16 16 16 16 17 17 17 17 16 17 17 16 17 17
21 19 18 18 20 21 21 20 20 19 19 19 21 22 23 21 18 18 19 19 20 20 19 19 19 18 17 16 16 15 15 16 16 15 16 16 16 16 15 15 15 16
19 17 18 20 21 21 21 20 20 20 19 20 22 23 22 21 19 20 21 20 20 19 18 18 18 18 17 16 16 15 15 15 14 14 15 15 15 14 14 14 14 14
17 17 19 21 21 22 21 20 19 19 19 22 24 24 23 21 21 21 22 22 21 19 18 17 18 18 17 16 15 15 14 14 13 13 13 14 14 13 13 12 12 12

ECMWFNIL_850_spd_138.txt.gz
Wind_Speed
23 21 20 22 20 16 15 16 17 18 18 15 14 15 15 12 10 9 7 5 2 2 3 4 5 7 7 8 9 10 10 9 9 9 8 8 7 7 7 7 7 8
24 22 23 24 20 16 15 16 16 18 18 15 12 13 14 12 11 9 7 5 2 2 5 6 7 8 8 10 11 10 9 9 8 9 8 7 7 7 7 7 8 8
23 22 23 23 19 17 17 18 19 19 18 15 14 13 12 11 10 9 6 4 2 2 6 8 9 9 10 11 11 10 9 9 9 9 8 7 7 7 8 9 9 9
21 21 23 21 18 17 18 20 23 22 19 17 15 12 11 10 9 6 5 4 3 3 7 9 10 10 11 12 11 10 9 9 9 9 7 7 8 8 9 10 10 10
22 22 22 19 17 18 19 22 23 21 20 17 15 12 11 10 7 4 4 3 3 6 9 9 10 11 11 12 11 10 10 9 10 9 8 8 9 9 11 11 11 12
22 22 20 18 18 19 21 23 21 20 20 17 15 13 11 8 5 4 3 4 6 8 9 10 11 10 10 12 11 10 10 10 10 10 9 10 10 12 13 13 13 14
22 22 21 20 21 20 21 22 21 22 20 16 15 13 9 7 6 5 3 5 8 10 10 10 11 10 11 12 11 10 11 11 11 10 10 11 13 14 14 14 14 15
21 22 22 22 22 21 20 21 22 22 19 16 15 11 8 7 7 5 4 6 9 11 11 10 11 12 12 12 11 11 11 12 12 12 12 13 15 15 15 15 15 16
17 20 21 20 20 21 21 23 24 23 20 17 14 10 8 8 7 5 4 8 11 12 11 10 11 13 13 13 13 12 12 13 14 14 14 15 16 16 15 16 16 17
18 18 18 17 18 21 23 24 25 24 20 17 13 10 9 9 8 6 6 9 12 12 12 11 12 14 14 14 14 13 13 15 15 15 16 16 16 17 16 16 17 18
20 19 18 17 19 22 24 24 24 23 20 16 12 10 9 7 7 7 8 11 12 12 13 13 14 14 15 15 15 15 15 15 16 16 17 17 17 17 17 17 18 18
20 20 20 19 18 20 23 24 24 23 19 15 12 10 8 7 6 7 11 14 15 14 15 15 15 15 15 15 15 16 16 16 17 17 18 18 18 18 18 18 19 19
21 20 19 18 17 20 25 25 24 21 18 14 12 10 9 8 7 9 15 19 18 17 16 15 16 16 16 16 16 16 17 17 17 18 19 19 19 19 19 19 19 20
22 20 19 19 19 21 25 26 23 20 16 14 13 12 11 9 9 15 20 21 19 17 16 16 17 17 17 18 18 17 18 18 19 19 20 20 20 20 20 20 19 20
23 22 21 21 22 23 25 25 22 18 16 16 15 14 12 10 13 18 22 21 19 17 16 17 19 19 19 18 18 19 19 19 20 20 20 21 21 20 20 19 19 19
23 24 23 23 24 25 26 24 20 18 18 17 15 14 12 12 16 21 22 20 17 17 17 19 19 19 19 19 19 19 20 21 21 21 21 21 21 20 20 19 19 19
23 25 25 25 25 25 24 22 19 19 18 16 15 14 13 16 20 22 21 18 16 17 18 19 20 19 19 19 19 20 21 22 22 21 21 21 20 20 20 19 19 18
25 27 26 26 26 25 22 20 19 18 17 16 16 15 16 20 23 22 19 17 17 18 20 21 21 21 19 18 19 21 22 22 22 22 21 21 20 20 19 19 18 18
27 28 27 26 26 24 21 20 19 19 17 17 17 17 17 21 23 21 19 18 18 19 21 22 22 21 20 19 19 21 23 22 22 22 21 20 20 20 19 19 17 17
28 28 27 26 24 22 20 20 19 18 17 18 18 18 18 20 22 21 19 18 19 20 22 23 23 21 20 20 20 21 23 23 22 21 21 20 20 19 19 19 17 16
27 27 26 24 22 21 20 19 18 19 20 19 19 18 18 20 22 21 19 19 20 22 23 24 23 21 20 21 21 21 22 22 21 21 21 20 19 19 19 18 18 16
27 27 25 22 21 21 20 19 20 21 21 19 18 17 17 21 22 20 19 20 21 23 24 24 23 22 21 21 21 21 21 21 21 21 20 19 19 18 18 18 17 16
27 26 24 22 22 21 21 21 21 20 18 17 17 16 18 21 22 20 19 21 22 23 24 24 24 22 21 22 22 22 21 20 19 20 19 20 19 18 17 17 16 16
27 25 23 22 22 21 22 21 19 18 17 16 16 17 21 23 22 20 21 21 22 23 24 24 24 23 22 22 22 23 21 18 17 18 19 19 18 17 16 15 14 15
28 25 23 21 20 21 23 22 19 18 17 16 17 21 24 23 21 21 22 21 22 23 23 23 23 23 22 22 22 23 21 15 14 17 18 16 16 15 14 13 13 13
28 25 22 22 21 22 25 24 22 21 19 17 20 24 24 22 21 23 23 22 22 23 23 23 23 22 22 22 22 23 21 15 12 14 15 14 13 12 12 11 11 10

ECMWFNIL_850_spd_141.txt.gz
Wind_Speed
20 22 22 21 20 18 17 16 15 13 14 15 15 16 15 14 13 12 11 11 11 9 7 5 6 6 5 7 10 11 10 9 9 8 7 7 6 6 6 6 6 7
20 21 21 22 21 18 17 15 14 13 14 15 15 15 15 14 13 13 12 11 10 8 6 7 7 6 6 9 12 11 10 9 9 8 7 7 7 6 6 7 7 9
20 21 20 21 22 20 17 15 14 14 15 16 14 14 16 16 14 12 11 10 10 8 6 8 8 7 8 11 13 11 10 10 9 8 8 7 7 7 7 8 9 10
19 22 21 20 22 21 17 15 15 15 16 16 16 17 18 17 14 13 12 11 9 7 7 8 8 8 10 12 13 12 10 10 9 8 8 8 8 8 9 10 11 12
19 22 22 22 22 20 16 16 16 16 17 17 17 18 18 16 14 14 13 10 8 7 8 9 8 8 10 13 13 11 10 10 9 9 8 8 9 10 11 12 13 14
21 23 24 23 22 20 18 17 17 17 17 17 18 19 17 16 14 12 11 9 8 9 9 10 9 8 12 14 13 12 11 10 10 10 9 10 11 12 13 13 14 15
22 23 23 22 22 22 21 18 17 17 17 18 19 18 17 16 12 10 9 8 10 10 10 11 10 9 13 15 13 12 12 11 11 11 11 12 13 14 15 15 15 15
24 23 23 23 24 24 21 18 18 17 18 21 20 19 19 16 13 12 9 9 12 11 11 12 11 9 13 15 13 12 13 13 13 12 13 14 15 15 15 15 16 16
25 25 25 25 25 24 20 20 19 18 21 23 22 22 20 15 12 11 10 12 13 12 12 13 11 10 14 15 13 13 14 14 14 14 15 15 15 15 16 16 17 17
24 24 25 25 25 23 20 20 20 21 25 26 24 23 19 15 11 10 12 14 13 13 14 12 11 13 16 16 14 14 15 15 15 15 16 16 15 16 16 16 17 17
24 23 25 26 24 20 20 21 23 25 29 29 26 22 17 15 12 10 14 15 14 15 14 12 13 16 17 17 16 16 16 16 17 17 17 17 16 17 16 16 16 17
26 22 23 24 22 19 20 23 27 29 30 30 26 21 16 14 12 11 14 16 15 15 13 13 16 17 17 17 17 17 18 18 18 18 17 17 17 17 17 17 17 17
28 25 24 23 22 21 22 27 31 31 30 29 25 20 17 14 13 13 15 16 16 14 13 15 17 17 18 18 17 18 19 19 19 19 18 18 17 17 18 17 17 17
28 27 26 24 23 23 26 31 33 33 32 29 24 20 16 13 13 15 17 17 16 15 15 18 19 18 18 18 18 19 19 20 20 19 19 19 18 18 18 18 17 17
28 27 26 25 24 25 29 34 34 33 31 28 24 21 16 14 15 17 18 18 16 16 18 20 19 19 19 19 19 20 20 20 20 19 19 19 19 19 18 18 18 18
28 28 26 25 27 28 31 34 34 33 30 26 24 22 17 15 16 17 18 18 17 18 20 21 21 22 21 21 20 20 21 21 20 19 19 19 19 19 19 18 19 19
29 27 26 26 28 31 34 35 33 32 29 24 21 19 16 15 17 18 18 17 18 20 22 23 23 24 23 23 23 22 21 21 21 20 20 20 20 20 19 19 19 19
28 27 26 27 28 30 34 34 31 30 27 23 20 17 14 15 17 18 18 19 20 22 22 22 22 23 23 24 24 24 21 20 20 20 19 20 20 19 18 17 17 17
27 28 28 29 29 30 33 33 31 29 25 23 23 18 14 16 18 18 19 21 22 21 21 21 21 22 23 24 26 25 22 19 18 19 18 18 19 18 16 16 15 16
28 29 29 30 30 30 32 33 31 27 23 24 22 17 16 18 17 18 21 22 22 21 22 24 23 23 23 24 26 26 22 19 18 19 19 18 17 16 15 15 14 14
30 32 31 31 31 31 31 31 28 24 24 23 18 14 15 16 17 20 23 22 22 23 25 25 25 24 24 25 26 26 23 20 21 21 20 19 18 17 16 16 15 15
31 33 32 32 32 32 30 28 26 25 24 20 15 14 15 16 19 22 23 22 23 25 26 26 26 25 24 25 26 25 22 20 20 20 19 19 19 17 16 16 15 15
31 33 32 32 32 30 28 27 26 24 20 16 15 16 16 18 21 23 22 23 25 26 26 26 26 26 25 25 25 23 20 17 17 17 17 17 17 16 16 16 16 15
32 32 31 31 30 28 26 24 22 19 16 15 16 17 18 19 22 23 22 23 26 27 27 27 27 27 26 25 25 24 21 15 13 15 15 15 15 16 16 16 16 16
33 31 29 29 28 25 21 19 18 16 16 17 17 18 19 19 20 22 23 24 26 27 27 26 27 28 28 27 26 25 22 16 12 14 14 14 14 15 14 13 13 13
31 30 30 27 23 20 18 17 17 18 18 18 18 18 19 19 20 22 22 24 26 27 27 27 28 29 29 29 27 25 22 18 14 13 14 13 12 13 13 12 12 11

ECMWFNIL_850_spd_144.txt.gz
Wind_Speed
22 21 22 22 22 21 20 20 21 19 18 18 17 15 16 17 16 15 15 14 13 13 13 12 12 11 9 9 10 11 11 10 10 9 9 8 8 7 7 7 7 8
22 21 22 22 22 21 19 20 21 20 19 19 18 17 18 17 16 15 15 14 13 13 12 11 11 10 9 10 11 11 11 10 10 9 9 8 8 8 8 8 9 10
22 21 22 22 22 22 21 21 20 19 18 18 18 19 19 17 15 16 16 14 13 13 11 10 10 10 9 10 11 12 11 10 10 9 8 8 8 8 9 10 11 13
22 22 22 22 22 23 23 22 20 18 17 16 17 18 17 15 16 16 14 12 12 12 10 9 9 10 9 10 12 12 10 9 8 8 8 8 8 9 10 12 13 14
22 22 23 23 23 23 22 21 19 17 16 15 16 16 14 15 16 15 13 12 11 10 8 8 10 9 9 11 12 11 10 9 8 8 8 8 9 11 13 14 15 16
22 23 24 25 25 24 21 20 18 17 16 15 15 15 14 16 17 15 13 12 10 7 7 9 10 9 9 11 12 11 9 9 9 9 8 9 11 13 14 16 16 17
24 24 25 25 25 25 22 20 18 16 16 16 15 15 15 17 17 15 12 10 8 7 8 9 9 9 10 12 12 11 10 9 9 9 9 10 13 14 15 15 16 16
25 24 25 25 25 25 23 21 19 17 16 16 16 16 17 18 17 13 11 8 7 9 10 8 7 8 11 13 12 11 10 10 10 10 10 12 15 15 16 16 15 15
25 24 25 26 26 26 25 23 20 18 17 16 17 19 19 18 16 13 10 8 8 10 10 8 7 9 12 13 12 11 11 11 11 11 12 13 15 15 15 16 15 15
25 24 25 26 27 29 28 24 21 19 18 18 20 21 21 19 16 12 9 8 10 12 11 10 9 10 13 13 12 12 12 12 11 12 13 14 15 15 15 16 16 15
24 23 25 26 28 29 27 22 20 20 20 21 23 22 21 19 15 11 9 9 10 11 12 12 10 10 14 14 14 13 12 12 13 14 15 15 16 16 16 16 16 16
25 24 25 26 27 27 24 22 21 21 22 24 25 23 22 19 14 11 11 10 11 12 13 12 11 12 15 15 14 14 14 15 16 17 17 17 17 17 17 17 16 15
26 26 26 27 26 24 22 22 22 21 23 26 26 24 22 18 13 12 12 11 13 14 13 13 12 13 15 16 15 16 17 17 18 17 17 17 17 17 17 16 14 13
28 27 27 27 25 23 22 22 21 21 23 26 27 25 21 16 13 15 15 13 14 15 13 13 14 15 16 17 17 18 18 18 18 18 18 18 18 17 16 14 13 14
29 28 28 27 25 24 23 22 21 22 24 27 28 25 20 16 14 16 18 16 16 17 14 14 16 17 17 18 18 18 18 18 19 19 18 18 18 17 15 15 15 15
30 29 28 27 25 24 23 21 22 24 26 28 28 24 21 18 16 18 19 19 18 18 16 16 17 18 19 19 19 19 19 20 20 19 18 18 17 17 17 17 17 16
28 28 26 25 24 24 22 21 23 27 29 29 27 24 20 19 19 19 20 20 19 17 17 20 20 20 21 20 19 19 20 20 19 18 18 18 17 18 18 18 18 18
27 27 26 25 25 24 22 23 27 29 30 28 26 23 21 20 20 20 20 20 19 18 20 22 22 22 22 20 20 20 20 20 20 19 18 18 18 18 18 18 18 19
28 28 27 26 26 24 24 26 28 30 29 27 26 24 22 21 21 20 21 21 20 20 23 24 23 23 23 21 21 21 20 20 20 19 18 18 19 19 19 19 19 19
27 28 27 26 25 25 26 28 29 30 29 28 27 25 24 24 23 22 23 23 22 23 25 24 23 24 23 22 22 21 20 19 19 19 20 20 20 20 19 20 19 19
27 27 26 26 25 26 29 31 31 31 30 29 29 26 24 23 23 23 23 21 22 23 24 24 23 23 23 23 23 22 20 19 19 20 20 20 19 19 18 17 18 19
27 27 26 26 26 29 32 32 32 31 30 29 28 26 24 22 22 22 21 21 22 23 22 22 23 24 24 24 24 23 21 20 21 20 20 20 19 18 18 18 18 19
26 27 27 27 28 32 33 32 32 31 29 28 26 24 22 21 21 21 21 23 25 22 19 21 23 25 25 26 27 25 22 21 22 21 21 21 20 20 20 20 19 17
27 27 28 29 30 32 32 32 31 29 27 25 24 22 21 20 19 18 20 24 25 20 19 23 26 26 27 28 28 25 22 20 20 21 21 20 19 19 20 19 18 17
28 29 29 29 30 31 31 31 29 27 25 24 22 20 20 19 18 18 21 23 23 20 22 25 27 27 29 29 28 25 22 19 17 19 20 20 20 20 20 19 18 17
29 29 30 30 30 30 30 30 29 26 25 22 19 18 18 18 18 19 21 23 22 22 24 26 27 28 29 29 27 25 23 20 18 19 20 21 21 20 19 18 17 16